sat.trackr.live / text

‹ back to catalog

COSMOS 2609

NORAD 68754 · 2026-083B

PAYLOAD ACTIVE UNKNOWN

§ Identity

Operator
Country
CIS
Launch date
2026-04-16
Launch site
PLMSC
Launch vehicle
Mass (kg)
RCS (m²)

External: N2YO · Heavens-Above · Gunter

§ Orbital elements

Epoch: 2026-05-24T22:35:53.962656Z

Period
95.54 min
Inclination
98.1196°
Eccentricity
0.0012036
Mean motion
15.07262725 rev/d
Perigee alt
536.2 km
Apogee alt
552.9 km
Semi-major
6,922.7 km
B*
1.3534e-4
RAAN
292.5584°
Arg perigee
144.2977°
Mean anomaly
215.9056°
Rev number
572

§ Raw data

COSMOS 26091 68754U 26083B   26144.94159679  .00001973  00000+0  13534-3 0  99942 68754  98.1196 292.5584 0012036 144.2977 215.9056 15.07262725  5726

JSON: /api/v1/satellites/68754 · /tle

For live sub-satellite position, see the globe view (requires WebGL).

§ Visibility from observer

Set your observer location to see the next 7 days of passes ≥ 10°. The values pass through the URL so the page stays shareable.

No JS? Fill the form by hand. The geolocation button needs JavaScript.